Location: Malvern Link
(52.1333°N, 2.3000°W)
Time: 10:46:00
(UTC+00:00)

Cosmos 2278 Rocket - Pass Details

Date: 18 September 2020
Orbit: 841 x 845 km, 71.0° (Epoch: 25 October)

Event Time Altitude Azimuth Distance (km) Brightness Sun altitude
Exits shadow 23:04:09 40° 354° (N) 1,230 3.3 -35.1°
Drops below altitude 10° 23:08:08 10° 25° (NNE) 2,472 5.1 -35.2°
Sets 23:10:41 0° 30° (NNE) 3,411 5.9 -35.3°
